Regional Weather Roundup
Issued by NWS

Home | Current Version | Previous Version | Text Only | Print | Product List | Glossary On
Versions: 1 2 3 4 5 6 7 8 9 10 11 12 13 14 15 16 17 18 19 20 21 22 23 24 25 26 27 28 29 30 31 32 33 34 35 36 37 38 39 40 41 42 43 44 45 46 47 48 49 50
000
ASUS43 KMKX 121721
RWRWI

WISCONSIN REGIONAL WEATHER ROUNDUP
NATIONAL WEATHER SERVICE MILWAUKEE/SULLIVAN WI
1100 AM CST FRI FEB 12 2016

NOTE: "FAIR" INDICATES FEW OR NO CLOUDS BELOW 12,000 FEET WITH NO
SIGNIFICANT WEATHER AND/OR OBSTRUCTIONS TO VISIBILITY.

WIZ001-002-006>008-014>016-023>028-121800-
NORTHWEST WISCONSIN

CITY           SKY/WX    TMP DP  RH WIND       PRES   REMARKS
SUPERIOR ARPT  SUNNY      1 -13  52 N17       30.42R WCI -20
ASHLAND        CLOUDY     3  -8  60 NW14G25   30.33R WCI -15
HAYWARD        PTSUNNY    2 -11  54 N13G21    30.30R WCI -15
SIREN          SUNNY      4 -13  43 N16G26    30.38R WCI -14
CUMBERLAND     MOSUNNY    5  -9  51 NW24      30.30R HAZE    WCI -17
RICE LAKE      SUNNY      6  -9  49 N13G23    30.32R WCI -10
CHETEK         MOSUNNY    7  -7  52 MISG      30.31R
LADYSMITH      SUNNY      6  -7  56 NW21      30.27R WCI -15
EAU CLAIRE     SUNNY     10  -5  50 N14G29    30.31R WCI  -6
MENOMONIE      MOSUNNY   12  -4  48 NW16G22   30.33R WCI  -4
NEW RICHMOND   SUNNY      7  -6  54 NW23G29   30.36R WCI -14
OSCEOLA        SUNNY      8  -7  51 NW16      30.41R WCI -10
$$

WIZ003>005-009-010-017-018-121800-
NORTH CENTRAL WISCONSIN

CITY           SKY/WX    TMP DP  RH WIND       PRES   REMARKS
MANITOWISH WTR LGT SNOW   2  -5  71 NW17G26   30.13R VSB 1   WCI -18
ARBOR VITAE    PTSUNNY    5  -4  65 NW17G28   30.12R HAZE    WCI -14
WOODRUFF       PTSUNNY    5  -4  65 NW17G28   30.12R HAZE    WCI -14
RHINELANDER    PTSUNNY    6  -9  50 NW17G28   30.10R WCI -13
EAGLE RIVER    LGT SNOW   5  -4  66 NW22G33   30.08R VSB 3/4 WCI -16
LAND O LAKES   CLOUDY     6  -6  55 NW14G25   30.08R HAZE    WCI -10
PHILLIPS       PTSUNNY    3  -9  56 NW12G22   30.18R WCI -13
TOMAHAWK       CLOUDY     6  -7  56 NW17G25   30.15R WCI -13
MEDFORD        MOSUNNY    6  -6  56 NW16G28   30.15R HAZE    WCI -12
MERRILL        CLOUDY     7  -7  53 NW18G28   30.15S WCI -12
$$

WIZ029-030-035-036-043>047-121800-
CENTRAL WISCONSIN

CITY           SKY/WX    TMP DP  RH WIND       PRES   REMARKS
WAUSAU         PTSUNNY    9  -5  53 NW16G28   30.15R WCI  -8
MOSINEE        MOSUNNY    9  -4  56 NW23G29   30.16R WCI -12
MARSHFIELD     MOSUNNY    9  -6  50 NW23G36   30.17R WCI -11
STEVENS POINT  MOSUNNY    9  -6  50 NW18G24   30.16R WCI -10
WAUPACA        SUNNY     16  -5  39 W18G29    30.16R WCI   0
WAUTOMA        SUNNY     15  -4  42 NW22G29   30.17R WCI  -3
WISC RAPIDS    MOSUNNY   11  -3  53 NW15G26   30.20R WCI  -5
CAMP DOUGLAS   MOSUNNY   14   0  52 NW18G28   30.21R WCI  -3
$$

WIZ011>013-019>022-031-037>040-048>050-121800-
NORTHEAST WISCONSIN

CITY           SKY/WX    TMP DP  RH WIND       PRES   REMARKS
ANTIGO         CLOUDY     7  -4  61 NW16G23   30.08R WCI -12
SHAWANO        PTSUNNY   15  -1  48 NW16G25   30.13R WCI   0
OCONTO         PTSUNNY   15  -2  46 NW13      30.10R WCI   1
STURGEON BAY   CLOUDY    14  -2  48 NW18      30.09R WCI  -3
GREEN BAY      MOSUNNY   14   0  53 NW17      30.11R WCI  -3
MANITOWOC      SUNNY     17   3  54 NW17G28   30.10S WCI   1
APPLETON       MOSUNNY   14  -2  48 W16G23    30.10R WCI  -2
CLINTONVILLE   PTSUNNY   14  -4  44 NW20G28   30.13R WCI  -3
OSHKOSH        SUNNY     15   0  51 NW18      30.13R WCI  -2
$$

WIZ032>034-041-042-053>061-121800-
SOUTHWEST WISCONSIN

CITY           SKY/WX    TMP DP  RH WIND       PRES   REMARKS
LA CROSSE      MOSUNNY   14   1  56 NW21      30.29R WCI  -4
SPARTA         SUNNY     15   1  53 NW14G24   30.26R WCI   0
VIROQUA        PTSUNNY   13   1  58 NW13      30.22R WCI  -1
BOSCOBEL       CLOUDY    18   5  57 NW14G23   30.28R WCI   4
PRAIRIE DU CHI SUNNY     17   3  54 NW15      30.31R WCI   3
PLATTEVILLE    PTSUNNY   17   9  70 NW14G21   30.24R WCI   3
$$

WIZ056-057-062-063-064-067-068-121800-
SOUTH CENTRAL WISCONSIN

CITY           SKY/WX    TMP DP  RH WIND       PRES   REMARKS
REEDSBURG      PTSUNNY   15   3  58 NW13      30.20S WCI   1
BARABOO/DELLS  MOSUNNY   15  -1  48 NW14G22   30.19R WCI   1
LONE ROCK      PTSUNNY   18   2  49 NW18      30.25R WCI   2
MINERAL POINT  PTSUNNY   19   7  58 NW16G22   30.21R WCI   5
MADISON        PTSUNNY   16   3  56 NW15G28   30.18R WCI   1
MIDDLETON      CLOUDY    18   6  58 NW16G23   30.20R WCI   4
WATERTOWN      CLOUDY    17   6  62 NW15G24   30.15S WCI   3
MONROE         PTSUNNY   19   9  63 NW13G22   30.18S WCI   7
JANESVILLE     MOSUNNY   19   7  58 NW21G26   30.18R WCI   3
$$

WIZ051-052-058>065-066-070>072-121800-
SOUTHEAST WISCONSIN

CITY           SKY/WX    TMP DP  RH WIND       PRES   REMARKS
MILWAUKEE      PTSUNNY   18   3  52 NW20G31   30.14R WCI   2
WAUKESHA       CLOUDY    16   3  57 W20G26    30.14R WCI  -1
MILWAUKEE/TIMM PTSUNNY   18   3  53 NW18G29   30.14R WCI   2
RACINE         PTSUNNY   19   3  49 NW18G25   30.15R WCI   4
BURLINGTON     PTSUNNY   17   5  59 NW21      30.15S WCI   1
KENOSHA        PTSUNNY   18   6  59 NW17G28   30.14S WCI   3
FOND DU LAC    MOSUNNY   16   2  54 NW20      30.13R WCI  -1
SHEBOYGAN      PTSUNNY   16   3  56 NW17G25   30.11R WCI   0
WEST BEND      CLOUDY    18   3  53 W14G25    30.12S WCI   4
JUNEAU         SUNNY     15   2  56 NW13G22   30.15S WCI   1
$$

LSZ147-162-121800-
LAKE SUPERIOR

STATION/POSITION TIME  TEMP    WIND        PRES    WAVE
                       AIR SEA DIR/SP/G            HT/PER
                 (UTC) (F)     (DEG/KT/KT) (MB)    (FT/S)
DEVILS ISLAND    1700    0     330/ 27/ 30 1029.6R
PORT WING        1600    2     320/ 16/ 24 1027.8R
SAXON HARBOR     1601    4                 1025.1R
$$

LMZ867-665-643>646-121800-
LAKE MICHIGAN

STATION/POSITION TIME  TEMP    WIND        PRES    WAVE
                       AIR SEA DIR/SP/G            HT/PER
                 (UTC) (F)     (DEG/KT/KT) (MB)    (FT/S)
CHAMBERS ISLAND  1600   17     300/  9/ 16 1017.9R
ALGOMA LAKESHORE 1611          320/ 12/ 20   N/A
KEWAUNEE LAKESHO 1600   15     300/ 15/ 20 1017.7S
SHEBOYGAN LAKESH 1700   15     290/ 18/ 23 1021.1R
PORT WASHINGTON  1600   17     320/  9/ 19 1021.0S
MILWAUKEE LAKESH 1610   17     310/ 16/ 22   N/A
KENOSHA   LAKESH 1700   18     290/ 15/ 24 1020.7R
$$

TC  - TEMPERATURE IN CELSIUS
VSB - VISIBILITY IN STATUTE MILES
WCI - WIND CHILL INDEX
HX  - HEAT INDEX




USA.gov is the U.S. government's official web portal to all federal, state and local government web resources and services.